Weather History for KBUF - June, 2013

Change the Weather History Date:

Monday, June 17, 2013

  Actual Average Record
Temperature  
Mean Temperature 68 °F 67 °F  
Max Temperature 75 °F 76 °F 94 °F (1994)
Min Temperature 61 °F 58 °F 42 °F (1980)
Degree Days  
Heating Degree Days 0 2  
Month to date heating degree days 55 50  
Since 1 June heating degree days 55 50  
Since 1 July heating degree days 6087 6603  
Cooling Degree Days 3 4  
Month to date cooling degree days 22 42  
Year to date cooling degree days 93 68  
Since 1 June cooling degree days 22 42  
Growing Degree Days 18 (Base 50)    
Moisture  
Dew Point 58 °F    
Average Humidity 73    
Maximum Humidity 93    
Minimum Humidity 53    
Precipitation  
Precipitation 0.09 in 0.13 in 1.61 in (1937)
Month to date precipitation 5.29 2.17  
Year to date precipitation 19.39 17.18  
Snow  
Snow 0.00 in 0.00 in 0.00 in ()
Month to date snowfall 0.0 0.0  
Since 1 June snowfall 0.0 0.0  
Since 1 July snowfall 58.8 94.7  
Snow Depth 0.00 in    
Sea Level Pressure  
Sea Level Pressure 29.88 in    
Wind  
Wind Speed 12 mph (SW)    
Max Wind Speed 21 mph    
Max Gust Speed 26 mph    
Visibility 10 miles    
Events Rain , Thunderstorm    
T = Trace of Precipitation, MM = Missing Value Source: NWS Daily Summary

Daily Weather History Graph

Daily Weather History Graph

Search for Another Location

Airport or City:

Trip Planner

Search our weather history database for the weather conditions in past years. The results will help you decide how hot, cold, wet, or windy it might be!

Date:

Astronomy

Jun. 17, 2013 Rise Set
Actual Time 5:35 AM EDT 8:56 PM EDT
Civil Twilight 5:00 AM EDT 9:31 PM EDT
Nautical Twilight 4:14 AM EDT 10:17 PM EDT
Astronomical Twilight 3:17 AM EDT 11:14 PM EDT
Moon 2:25 PM EDT (6/17) 1:18 AM EDT (6/17)
Length of Visible Light 16h 31m
Length of Day
15h 20m
First Quarter, 60% of the Moon is Illuminated
Jun 17
First Quarter
Jun 23
Full
Jun 30
Last Quarter
Jul 8
New
Jul 15
First Quarter

Hourly Weather History & Observations

Time (EDT) Temp. Dew Point Humidity Pressure Visibility Wind Dir Wind Speed Gust Speed Precip Events Conditions
12:54 AM 64.9 °F 61.0 °F 87% 29.84 in 10.0 mi SW 8.1 mph - N/A   Scattered Clouds
1:54 AM 64.9 °F 61.0 °F 87% 29.82 in 10.0 mi SW 12.7 mph 19.6 mph N/A   Scattered Clouds
2:54 AM 64.0 °F 60.1 °F 87% 29.83 in 10.0 mi SW 11.5 mph - N/A   Scattered Clouds
3:54 AM 63.0 °F 60.1 °F 90% 29.84 in 10.0 mi WSW 6.9 mph - N/A   Scattered Clouds
4:54 AM 62.1 °F 60.1 °F 93% 29.84 in 10.0 mi SSW 9.2 mph - N/A   Scattered Clouds
5:54 AM 62.1 °F 60.1 °F 93% 29.86 in 5.0 mi SSW 9.2 mph - N/A   Scattered Clouds
6:54 AM 64.0 °F 60.1 °F 87% 29.87 in 10.0 mi WSW 11.5 mph - N/A   Scattered Clouds
7:54 AM 66.9 °F 59.0 °F 76% 29.88 in 10.0 mi WSW 10.4 mph - N/A   Scattered Clouds
8:54 AM 68.0 °F 59.0 °F 73% 29.87 in 10.0 mi SW 17.3 mph 21.9 mph N/A   Scattered Clouds
9:54 AM 69.1 °F 59.0 °F 70% 29.86 in 10.0 mi SW 13.8 mph 24.2 mph N/A   Scattered Clouds
10:54 AM 69.1 °F 57.9 °F 68% 29.88 in 10.0 mi SW 19.6 mph 25.3 mph N/A   Scattered Clouds
11:54 AM 71.1 °F 59.0 °F 66% 29.89 in 10.0 mi SW 17.3 mph 24.2 mph N/A   Scattered Clouds
12:54 PM 70.0 °F 57.9 °F 65% 29.90 in 10.0 mi SW 17.3 mph - N/A   Scattered Clouds
1:54 PM 73.0 °F 57.9 °F 59% 29.90 in 10.0 mi SW 18.4 mph 25.3 mph N/A   Scattered Clouds
2:54 PM 73.0 °F 57.0 °F 57% 29.89 in 10.0 mi WSW 15.0 mph 23.0 mph N/A   Scattered Clouds
3:54 PM 73.0 °F 55.9 °F 55% 29.88 in 10.0 mi SW 16.1 mph - N/A   Scattered Clouds
4:40 PM 69.8 °F 53.6 °F 56% 29.90 in 10.0 mi WSW 17.3 mph 20.7 mph 0.00 in Rain , Thunderstorm Light Thunderstorms and Rain
4:54 PM 66.9 °F 59.0 °F 76% 29.90 in 8.0 mi SW 11.5 mph - 0.09 in Rain , Thunderstorm Light Thunderstorms and Rain
5:09 PM 71.6 °F 57.2 °F 60% 29.90 in 10.0 mi SW 10.4 mph - 0.00 in   Mostly Cloudy
5:54 PM 73.9 °F 55.0 °F 52% 29.88 in 10.0 mi WSW 16.1 mph - 0.00 in   Scattered Clouds
6:54 PM 73.9 °F 55.0 °F 52% 29.88 in 10.0 mi WSW 10.4 mph - N/A   Mostly Cloudy
7:54 PM 71.1 °F 53.1 °F 53% 29.88 in 10.0 mi SW 8.1 mph - N/A   Mostly Cloudy
8:54 PM 68.0 °F 54.0 °F 61% 29.90 in 10.0 mi WSW 3.5 mph - N/A   Mostly Cloudy
9:54 PM 66.9 °F 57.0 °F 70% 29.92 in 10.0 mi NE 5.8 mph - N/A   Mostly Cloudy
10:54 PM 66.0 °F 57.0 °F 73% 29.92 in 10.0 mi NNE 4.6 mph - N/A   Mostly Cloudy
11:54 PM 64.9 °F 57.0 °F 75% 29.93 in 10.0 mi NNE 3.5 mph - N/A   Overcast